contact:dominique.lefevre@mio.osupytheas.fr, maurice.libes@osupytheas.fr, didier.mallarino@osupytheas.fr
Project:EMSO http://www.emso-fr.org/EMSO-France
Depth: 2436.0 m
Title:EMSO Ligure Ouest : Data MII capteur CSTAR
DateTime,Latitude,Longitude,Instrument_Serial,Reference_Counts,Signal_Counts,Corrected_Signal_raw_counts,Calculated_Beam_c_inverse_meters,Internal_thermistor_counts
DateTime,Latitude,Longitude,Instrument_Serial,Reference_Counts,Signal_Counts,Corrected_Signal_raw_counts,Calculated_Beam_c_inverse_meters,Internal_thermistor_counts
2021-05-11T00:00:05,42.805,6.029,CST-1368DR,5467,7629,14981,0.166,551
2021-05-11T00:03:06,42.805,6.029,CST-1368DR,5467,7629,14981,0.166,551
2021-05-11T00:06:08,42.805,6.029,CST-1368DR,5467,7628,14978,0.167,551
2021-05-11T00:09:09,42.805,6.029,CST-1368DR,5467,7629,14980,0.166,551
2021-05-11T00:12:11,42.805,6.029,CST-1368DR,5467,7628,14979,0.167,551
2021-05-11T00:15:13,42.805,6.029,CST-1368DR,5467,7629,14980,0.166,551
2021-05-11T00:18:14,42.805,6.029,CST-1368DR,5467,7628,14979,0.167,551
2021-05-11T00:21:16,42.805,6.029,CST-1368DR,5467,7628,14979,0.167,551
2021-05-11T00:24:17,42.805,6.029,CST-1368DR,5467,7629,14980,0.166,551
2021-05-11T00:27:19,42.805,6.029,CST-1368DR,5467,7629,14980,0.166,551
2021-05-11T00:30:20,42.805,6.029,CST-1368DR,5467,7629,14981,0.166,551
2021-05-11T00:33:22,42.805,6.029,CST-1368DR,5467,7629,14980,0.166,551
2021-05-11T00:36:24,42.805,6.029,CST-1368DR,5467,7628,14979,0.167,551
2021-05-11T00:39:25,42.805,6.029,CST-1368DR,5467,7628,14978,0.167,551
2021-05-11T00:42:27,42.805,6.029,CST-1368DR,5467,7629,14980,0.166,551
2021-05-11T00:45:28,42.805,6.029,CST-1368DR,5467,7628,14979,0.167,551
2021-05-11T00:48:30,42.805,6.029,CST-1368DR,5467,7629,14980,0.166,551
2021-05-11T00:51:32,42.805,6.029,CST-1368DR,5467,7629,14981,0.166,551
2021-05-11T00:54:33,42.805,6.029,CST-1368DR,5467,7629,14980,0.166,551
2021-05-11T00:57:35,42.805,6.029,CST-1368DR,5467,7629,14980,0.166,551
2021-05-11T01:00:36,42.805,6.029,CST-1368DR,5467,7629,14980,0.166,551
2021-05-11T01:03:38,42.805,6.029,CST-1368DR,5467,7629,14980,0.166,551
2021-05-11T01:06:39,42.805,6.029,CST-1368DR,5467,7628,14979,0.167,551
2021-05-11T01:09:41,42.805,6.029,CST-1368DR,5467,7628,14979,0.167,551
2021-05-11T01:12:43,42.805,6.029,CST-1368DR,5467,7629,14980,0.166,551
2021-05-11T01:15:44,42.805,6.029,CST-1368DR,5467,7629,14980,0.166,551
2021-05-11T01:18:46,42.805,6.029,CST-1368DR,5467,7628,14979,0.167,551
2021-05-11T01:21:47,42.805,6.029,CST-1368DR,5467,7628,14979,0.167,551
2021-05-11T01:24:49,42.805,6.029,CST-1368DR,5467,7629,14980,0.166,550
2021-05-11T01:27:51,42.805,6.029,CST-1368DR,5467,7628,14978,0.167,551
2021-05-11T01:30:52,42.805,6.029,CST-1368DR,5467,7627,14977,0.167,551
2021-05-11T01:33:54,42.805,6.029,CST-1368DR,5467,7629,14980,0.166,551
2021-05-11T01:36:55,42.805,6.029,CST-1368DR,5467,7629,14980,0.166,551
2021-05-11T01:39:57,42.805,6.029,CST-1368DR,5467,7629,14979,0.167,551
2021-05-11T01:42:58,42.805,6.029,CST-1368DR,5467,7628,14978,0.167,551
2021-05-11T01:46:00,42.805,6.029,CST-1368DR,5467,7629,14980,0.166,551
2021-05-11T01:49:02,42.805,6.029,CST-1368DR,5467,7628,14979,0.167,551
2021-05-11T01:52:03,42.805,6.029,CST-1368DR,5467,7628,14978,0.167,551
2021-05-11T01:55:05,42.805,6.029,CST-1368DR,5467,7628,14979,0.167,551
2021-05-11T01:58:06,42.805,6.029,CST-1368DR,5467,7628,14979,0.167,551
2021-05-11T02:01:08,42.805,6.029,CST-1368DR,5467,7628,14979,0.167,551
2021-05-11T02:04:09,42.805,6.029,CST-1368DR,5467,7629,14979,0.167,551
2021-05-11T02:07:11,42.805,6.029,CST-1368DR,5467,7629,14979,0.167,551
2021-05-11T02:10:13,42.805,6.029,CST-1368DR,5467,7628,14978,0.167,551
2021-05-11T02:13:14,42.805,6.029,CST-1368DR,5467,7629,14979,0.167,551
2021-05-11T02:16:16,42.805,6.029,CST-1368DR,5467,7628,14979,0.167,551
2021-05-11T02:19:17,42.805,6.029,CST-1368DR,5467,7628,14979,0.167,551
2021-05-11T02:22:19,42.805,6.029,CST-1368DR,5467,7628,14979,0.167,551
2021-05-11T02:25:21,42.805,6.029,CST-1368DR,5467,7629,14980,0.166,551
2021-05-11T02:28:22,42.805,6.029,CST-1368DR,5467,7628,14979,0.167,551
2021-05-11T02:31:24,42.805,6.029,CST-1368DR,5467,7629,14981,0.166,551
2021-05-11T02:34:25,42.805,6.029,CST-1368DR,5467,7629,14980,0.166,551
2021-05-11T02:37:27,42.805,6.029,CST-1368DR,5467,7629,14980,0.166,551
2021-05-11T02:40:28,42.805,6.029,CST-1368DR,5467,7628,14978,0.167,551
2021-05-11T02:43:30,42.805,6.029,CST-1368DR,5467,7629,14980,0.166,551
2021-05-11T02:46:32,42.805,6.029,CST-1368DR,5467,7629,14980,0.166,551
2021-05-11T02:49:33,42.805,6.029,CST-1368DR,5467,7628,14979,0.167,551
2021-05-11T02:52:35,42.805,6.029,CST-1368DR,5467,7629,14979,0.167,551
2021-05-11T02:55:36,42.805,6.029,CST-1368DR,5467,7629,14980,0.166,551
2021-05-11T02:58:38,42.805,6.029,CST-1368DR,5467,7629,14980,0.166,551
2021-05-11T03:01:39,42.805,6.029,CST-1368DR,5467,7629,14981,0.166,551
2021-05-11T03:04:41,42.805,6.029,CST-1368DR,5467,7628,14979,0.167,551
2021-05-11T03:07:43,42.805,6.029,CST-1368DR,5467,7629,14980,0.166,551
2021-05-11T03:10:44,42.805,6.029,CST-1368DR,5467,7629,14981,0.166,551
2021-05-11T03:13:46,42.805,6.029,CST-1368DR,5467,7629,14980,0.166,551
2021-05-11T03:16:47,42.805,6.029,CST-1368DR,5467,7628,14978,0.167,551
2021-05-11T03:19:49,42.805,6.029,CST-1368DR,5467,7627,14977,0.167,551
2021-05-11T03:22:51,42.805,6.029,CST-1368DR,5467,7629,14980,0.166,551
2021-05-11T03:25:52,42.805,6.029,CST-1368DR,5467,7629,14979,0.167,551
2021-05-11T03:28:54,42.805,6.029,CST-1368DR,5467,7628,14978,0.167,551
2021-05-11T03:31:55,42.805,6.029,CST-1368DR,5467,7629,14979,0.167,551
2021-05-11T03:34:57,42.805,6.029,CST-1368DR,5467,7628,14978,0.167,551
2021-05-11T03:37:58,42.805,6.029,CST-1368DR,5467,7628,14979,0.167,551
2021-05-11T03:41:00,42.805,6.029,CST-1368DR,5467,7629,14979,0.167,551
2021-05-11T03:44:02,42.805,6.029,CST-1368DR,5467,7629,14980,0.166,551
2021-05-11T03:47:03,42.805,6.029,CST-1368DR,5467,7629,14979,0.167,551
2021-05-11T03:50:05,42.805,6.029,CST-1368DR,5467,7629,14980,0.166,551
2021-05-11T03:53:06,42.805,6.029,CST-1368DR,5467,7628,14979,0.167,551
2021-05-11T03:56:08,42.805,6.029,CST-1368DR,5467,7629,14980,0.166,551
2021-05-11T03:59:10,42.805,6.029,CST-1368DR,5467,7628,14979,0.167,551
2021-05-11T04:02:11,42.805,6.029,CST-1368DR,5467,7628,14979,0.167,551
2021-05-11T04:05:13,42.805,6.029,CST-1368DR,5467,7628,14979,0.167,551
2021-05-11T04:08:14,42.805,6.029,CST-1368DR,5467,7629,14980,0.166,551
2021-05-11T04:11:16,42.805,6.029,CST-1368DR,5467,7628,14978,0.167,551
2021-05-11T04:14:17,42.805,6.029,CST-1368DR,5467,7626,14975,0.168,551
2021-05-11T04:17:19,42.805,6.029,CST-1368DR,5467,7628,14979,0.167,551
2021-05-11T04:20:21,42.805,6.029,CST-1368DR,5467,7628,14978,0.167,551
2021-05-11T04:23:22,42.805,6.029,CST-1368DR,5467,7628,14978,0.167,551
2021-05-11T04:26:24,42.805,6.029,CST-1368DR,5467,7626,14974,0.168,551
2021-05-11T04:29:25,42.805,6.029,CST-1368DR,5467,7628,14979,0.167,551
2021-05-11T04:32:27,42.805,6.029,CST-1368DR,5467,7628,14979,0.167,551
2021-05-11T04:35:28,42.805,6.029,CST-1368DR,5467,7628,14979,0.167,551
2021-05-11T04:38:30,42.805,6.029,CST-1368DR,5467,7628,14979,0.167,551
2021-05-11T04:41:32,42.805,6.029,CST-1368DR,5467,7627,14977,0.167,551
2021-05-11T04:44:33,42.805,6.029,CST-1368DR,5467,7628,14979,0.167,551
2021-05-11T04:47:35,42.805,6.029,CST-1368DR,5467,7628,14978,0.167,551
2021-05-11T04:50:36,42.805,6.029,CST-1368DR,5467,7628,14979,0.167,551
2021-05-11T04:53:38,42.805,6.029,CST-1368DR,5467,7628,14979,0.167,551
2021-05-11T04:56:40,42.805,6.029,CST-1368DR,5467,7628,14979,0.167,551
2021-05-11T04:59:41,42.805,6.029,CST-1368DR,5467,7628,14979,0.167,551
2021-05-11T05:02:43,42.805,6.029,CST-1368DR,5467,7628,14979,0.167,551
2021-05-11T05:05:44,42.805,6.029,CST-1368DR,5467,7627,14977,0.167,551
2021-05-11T05:08:46,42.805,6.029,CST-1368DR,5467,7627,14977,0.167,551
2021-05-11T05:11:47,42.805,6.029,CST-1368DR,5467,7628,14979,0.167,551
2021-05-11T05:14:49,42.805,6.029,CST-1368DR,5467,7628,14979,0.167,551
2021-05-11T05:17:51,42.805,6.029,CST-1368DR,5467,7628,14978,0.167,551
2021-05-11T05:20:52,42.805,6.029,CST-1368DR,5467,7628,14978,0.167,551
2021-05-11T05:23:54,42.805,6.029,CST-1368DR,5467,7628,14979,0.167,551
2021-05-11T05:26:55,42.805,6.029,CST-1368DR,5467,7628,14978,0.167,551
2021-05-11T05:29:57,42.805,6.029,CST-1368DR,5467,7628,14979,0.167,551
2021-05-11T05:32:59,42.805,6.029,CST-1368DR,5467,7628,14979,0.167,551
2021-05-11T05:36:00,42.805,6.029,CST-1368DR,5467,7628,14979,0.167,551
2021-05-11T05:39:02,42.805,6.029,CST-1368DR,5467,7628,14978,0.167,551
2021-05-11T05:42:03,42.805,6.029,CST-1368DR,5467,7628,14978,0.167,551
2021-05-11T05:45:05,42.805,6.029,CST-1368DR,5467,7628,14979,0.167,551
2021-05-11T05:48:06,42.805,6.029,CST-1368DR,5467,7628,14979,0.167,551
2021-05-11T05:51:08,42.805,6.029,CST-1368DR,5467,7628,14979,0.167,551
2021-05-11T05:54:10,42.805,6.029,CST-1368DR,5467,7628,14979,0.167,551
2021-05-11T05:57:11,42.805,6.029,CST-1368DR,5467,7628,14979,0.167,551
2021-05-11T06:00:13,42.805,6.029,CST-1368DR,5467,7628,14979,0.167,551
2021-05-11T06:03:14,42.805,6.029,CST-1368DR,5467,7628,14979,0.167,551
2021-05-11T06:06:16,42.805,6.029,CST-1368DR,5467,7628,14979,0.167,551
2021-05-11T06:09:17,42.805,6.029,CST-1368DR,5467,7629,14979,0.167,551
2021-05-11T06:12:19,42.805,6.029,CST-1368DR,5467,7628,14979,0.167,551
2021-05-11T06:15:21,42.805,6.029,CST-1368DR,5467,7628,14979,0.167,551
2021-05-11T06:18:22,42.805,6.029,CST-1368DR,5467,7628,14978,0.167,551
2021-05-11T06:21:24,42.805,6.029,CST-1368DR,5467,7628,14978,0.167,551
2021-05-11T06:24:25,42.805,6.029,CST-1368DR,5467,7628,14979,0.167,551
2021-05-11T06:27:27,42.805,6.029,CST-1368DR,5467,7628,14979,0.167,551
2021-05-11T06:30:29,42.805,6.029,CST-1368DR,5467,7628,14978,0.167,551
2021-05-11T06:33:30,42.805,6.029,CST-1368DR,5466,7627,14980,0.166,551
2021-05-11T06:36:32,42.805,6.029,CST-1368DR,5467,7628,14979,0.167,551
2021-05-11T06:39:33,42.805,6.029,CST-1368DR,5467,7626,14975,0.168,551
2021-05-11T06:42:35,42.805,6.029,CST-1368DR,5467,7628,14979,0.167,551
2021-05-11T06:45:36,42.805,6.029,CST-1368DR,5466,7628,14981,0.166,551
2021-05-11T06:48:38,42.805,6.029,CST-1368DR,5467,7629,14979,0.167,551
2021-05-11T06:51:40,42.805,6.029,CST-1368DR,5467,7628,14979,0.167,551
2021-05-11T06:54:41,42.805,6.029,CST-1368DR,5467,7628,14979,0.167,551
2021-05-11T06:57:43,42.805,6.029,CST-1368DR,5467,7628,14979,0.167,550
2021-05-11T07:00:44,42.805,6.029,CST-1368DR,5466,7628,14980,0.166,551
2021-05-11T07:03:46,42.805,6.029,CST-1368DR,5466,7628,14981,0.166,551
2021-05-11T07:06:48,42.805,6.029,CST-1368DR,5466,7628,14981,0.166,551
2021-05-11T07:09:49,42.805,6.029,CST-1368DR,5466,7628,14982,0.166,551
2021-05-11T07:12:51,42.805,6.029,CST-1368DR,5466,7628,14980,0.166,551
2021-05-11T07:15:52,42.805,6.029,CST-1368DR,5467,7627,14976,0.167,551
2021-05-11T07:18:54,42.805,6.029,CST-1368DR,5466,7628,14981,0.166,551
2021-05-11T07:21:55,42.805,6.029,CST-1368DR,5466,7628,14980,0.166,551
2021-05-11T07:24:57,42.805,6.029,CST-1368DR,5466,7626,14978,0.167,551
2021-05-11T07:27:59,42.805,6.029,CST-1368DR,5466,7627,14978,0.167,551
2021-05-11T07:31:00,42.805,6.029,CST-1368DR,5466,7628,14982,0.166,551
2021-05-11T07:34:02,42.805,6.029,CST-1368DR,5466,7628,14981,0.166,551
2021-05-11T07:37:03,42.805,6.029,CST-1368DR,5466,7629,14983,0.166,551
2021-05-11T07:40:05,42.805,6.029,CST-1368DR,5466,7628,14981,0.166,551
2021-05-11T07:43:06,42.805,6.029,CST-1368DR,5466,7628,14981,0.166,551
2021-05-11T07:46:08,42.805,6.029,CST-1368DR,5466,7628,14981,0.166,551
2021-05-11T07:49:10,42.805,6.029,CST-1368DR,5466,7628,14981,0.166,551
2021-05-11T07:52:11,42.805,6.029,CST-1368DR,5466,7628,14982,0.166,551
2021-05-11T07:55:13,42.805,6.029,CST-1368DR,5466,7628,14982,0.166,551
2021-05-11T07:58:14,42.805,6.029,CST-1368DR,5466,7629,14983,0.166,551
2021-05-11T08:01:16,42.805,6.029,CST-1368DR,5466,7628,14981,0.166,551
2021-05-11T08:04:18,42.805,6.029,CST-1368DR,5466,7628,14982,0.166,551
2021-05-11T08:07:19,42.805,6.029,CST-1368DR,5466,7629,14983,0.166,551
2021-05-11T08:10:21,42.805,6.029,CST-1368DR,5466,7629,14983,0.166,551
2021-05-11T08:13:22,42.805,6.029,CST-1368DR,5466,7628,14981,0.166,551
2021-05-11T08:16:24,42.805,6.029,CST-1368DR,5466,7629,14982,0.166,551
2021-05-11T08:19:25,42.805,6.029,CST-1368DR,5466,7629,14982,0.166,551
2021-05-11T08:22:27,42.805,6.029,CST-1368DR,5466,7629,14983,0.166,551
2021-05-11T08:25:29,42.805,6.029,CST-1368DR,5466,7629,14982,0.166,551
2021-05-11T08:28:30,42.805,6.029,CST-1368DR,5466,7628,14982,0.166,551
2021-05-11T08:31:32,42.805,6.029,CST-1368DR,5466,7629,14983,0.166,551
2021-05-11T08:34:33,42.805,6.029,CST-1368DR,5466,7629,14983,0.166,551
2021-05-11T08:37:35,42.805,6.029,CST-1368DR,5466,7629,14982,0.166,551
2021-05-11T08:40:37,42.805,6.029,CST-1368DR,5466,7629,14983,0.166,551
2021-05-11T08:43:38,42.805,6.029,CST-1368DR,5466,7629,14983,0.166,551
2021-05-11T08:46:40,42.805,6.029,CST-1368DR,5466,7630,14984,0.165,551
2021-05-11T08:49:41,42.805,6.029,CST-1368DR,5466,7629,14984,0.165,551
2021-05-11T08:52:43,42.805,6.029,CST-1368DR,5466,7629,14984,0.165,551
2021-05-11T08:55:44,42.805,6.029,CST-1368DR,5466,7629,14984,0.165,551
2021-05-11T08:58:46,42.805,6.029,CST-1368DR,5466,7629,14984,0.165,551
2021-05-11T09:01:48,42.805,6.029,CST-1368DR,5466,7630,14984,0.165,551
2021-05-11T09:04:49,42.805,6.029,CST-1368DR,5466,7630,14984,0.165,551
2021-05-11T09:07:51,42.805,6.029,CST-1368DR,5466,7629,14984,0.165,551
2021-05-11T09:10:52,42.805,6.029,CST-1368DR,5466,7629,14983,0.166,551
2021-05-11T09:13:54,42.805,6.029,CST-1368DR,5466,7629,14982,0.166,551
2021-05-11T09:16:55,42.805,6.029,CST-1368DR,5466,7630,14984,0.165,551
2021-05-11T09:19:57,42.805,6.029,CST-1368DR,5466,7629,14983,0.166,550
2021-05-11T09:22:59,42.805,6.029,CST-1368DR,5466,7630,14984,0.165,551
2021-05-11T09:26:00,42.805,6.029,CST-1368DR,5466,7629,14983,0.166,551
2021-05-11T09:29:02,42.805,6.029,CST-1368DR,5466,7630,14984,0.165,551
2021-05-11T09:32:03,42.805,6.029,CST-1368DR,5466,7629,14982,0.166,551
2021-05-11T09:35:05,42.805,6.029,CST-1368DR,5466,7629,14984,0.165,551
2021-05-11T09:38:07,42.805,6.029,CST-1368DR,5466,7629,14984,0.165,551
2021-05-11T09:41:08,42.805,6.029,CST-1368DR,5466,7629,14984,0.165,551
2021-05-11T09:44:10,42.805,6.029,CST-1368DR,5466,7630,14984,0.165,551
2021-05-11T09:47:11,42.805,6.029,CST-1368DR,5466,7630,14984,0.165,551
2021-05-11T09:50:13,42.805,6.029,CST-1368DR,5466,7629,14982,0.166,551
2021-05-11T09:53:14,42.805,6.029,CST-1368DR,5466,7630,14984,0.165,551
2021-05-11T09:56:16,42.805,6.029,CST-1368DR,5466,7630,14984,0.165,551
2021-05-11T09:59:18,42.805,6.029,CST-1368DR,5466,7629,14983,0.166,551
2021-05-11T10:02:19,42.805,6.029,CST-1368DR,5466,7629,14983,0.166,551
2021-05-11T10:05:21,42.805,6.029,CST-1368DR,5466,7630,14985,0.165,551
2021-05-11T10:08:22,42.805,6.029,CST-1368DR,5466,7629,14983,0.166,551
2021-05-11T10:11:24,42.805,6.029,CST-1368DR,5466,7628,14980,0.166,551
2021-05-11T10:14:26,42.805,6.029,CST-1368DR,5466,7629,14984,0.165,551
2021-05-11T10:17:27,42.805,6.029,CST-1368DR,5466,7629,14983,0.166,551
2021-05-11T10:20:29,42.805,6.029,CST-1368DR,5466,7629,14984,0.165,551
2021-05-11T10:23:30,42.805,6.029,CST-1368DR,5466,7630,14984,0.165,551
2021-05-11T10:26:32,42.805,6.029,CST-1368DR,5466,7629,14983,0.166,551
2021-05-11T10:29:33,42.805,6.029,CST-1368DR,5466,7629,14984,0.165,551
2021-05-11T10:32:35,42.805,6.029,CST-1368DR,5466,7630,14984,0.165,551
2021-05-11T10:35:37,42.805,6.029,CST-1368DR,5466,7629,14983,0.166,551
2021-05-11T10:38:38,42.805,6.029,CST-1368DR,5466,7629,14984,0.165,551
2021-05-11T10:41:40,42.805,6.029,CST-1368DR,5466,7629,14983,0.166,551
2021-05-11T10:44:41,42.805,6.029,CST-1368DR,5466,7629,14984,0.165,551
2021-05-11T10:47:43,42.805,6.029,CST-1368DR,5466,7629,14984,0.165,551
2021-05-11T10:50:44,42.805,6.029,CST-1368DR,5466,7629,14984,0.165,551
2021-05-11T10:53:46,42.805,6.029,CST-1368DR,5466,7630,14985,0.165,551
2021-05-11T10:56:48,42.805,6.029,CST-1368DR,5466,7629,14984,0.165,551
2021-05-11T10:59:49,42.805,6.029,CST-1368DR,5466,7629,14984,0.165,551
2021-05-11T11:02:51,42.805,6.029,CST-1368DR,5466,7629,14984,0.165,551
2021-05-11T11:05:52,42.805,6.029,CST-1368DR,5466,7629,14983,0.166,551
2021-05-11T11:08:54,42.805,6.029,CST-1368DR,5466,7629,14983,0.166,551
2021-05-11T11:11:56,42.805,6.029,CST-1368DR,5466,7629,14983,0.166,551
2021-05-11T11:14:57,42.805,6.029,CST-1368DR,5466,7629,14983,0.166,551
2021-05-11T11:17:59,42.805,6.029,CST-1368DR,5466,7629,14983,0.166,551
2021-05-11T11:21:00,42.805,6.029,CST-1368DR,5466,7629,14984,0.165,551
2021-05-11T11:24:02,42.805,6.029,CST-1368DR,5466,7629,14983,0.166,551
2021-05-11T11:27:03,42.805,6.029,CST-1368DR,5466,7629,14984,0.165,551
2021-05-11T11:30:05,42.805,6.029,CST-1368DR,5466,7629,14983,0.166,551
2021-05-11T11:33:07,42.805,6.029,CST-1368DR,5466,7630,14984,0.165,551
2021-05-11T11:36:08,42.805,6.029,CST-1368DR,5466,7629,14983,0.166,551
2021-05-11T11:39:10,42.805,6.029,CST-1368DR,5466,7629,14983,0.166,551
2021-05-11T11:42:11,42.805,6.029,CST-1368DR,5466,7629,14983,0.166,551
2021-05-11T11:45:13,42.805,6.029,CST-1368DR,5466,7629,14983,0.166,551
2021-05-11T11:48:14,42.805,6.029,CST-1368DR,5466,7629,14982,0.166,551
2021-05-11T11:51:16,42.805,6.029,CST-1368DR,5466,7629,14983,0.166,551
2021-05-11T11:54:18,42.805,6.029,CST-1368DR,5466,7628,14981,0.166,551
2021-05-11T11:57:19,42.805,6.029,CST-1368DR,5466,7629,14983,0.166,551
2021-05-11T12:00:21,42.805,6.029,CST-1368DR,5466,7630,14984,0.165,551
2021-05-11T12:03:22,42.805,6.029,CST-1368DR,5466,7630,14984,0.165,551
2021-05-11T12:06:24,42.805,6.029,CST-1368DR,5466,7629,14983,0.166,551
2021-05-11T12:09:26,42.805,6.029,CST-1368DR,5466,7629,14984,0.165,551
2021-05-11T12:12:27,42.805,6.029,CST-1368DR,5466,7629,14983,0.166,551
2021-05-11T12:15:29,42.805,6.029,CST-1368DR,5466,7629,14984,0.165,551
2021-05-11T12:18:30,42.805,6.029,CST-1368DR,5466,7629,14983,0.166,551
2021-05-11T12:21:32,42.805,6.029,CST-1368DR,5466,7629,14982,0.166,551
2021-05-11T12:24:33,42.805,6.029,CST-1368DR,5466,7629,14983,0.166,551
2021-05-11T12:27:35,42.805,6.029,CST-1368DR,5466,7629,14982,0.166,551
2021-05-11T12:30:37,42.805,6.029,CST-1368DR,5466,7629,14984,0.165,551
2021-05-11T12:33:38,42.805,6.029,CST-1368DR,5466,7629,14983,0.166,551
2021-05-11T12:36:40,42.805,6.029,CST-1368DR,5466,7629,14983,0.166,551
2021-05-11T12:39:41,42.805,6.029,CST-1368DR,5466,7629,14983,0.166,551
2021-05-11T12:42:43,42.805,6.029,CST-1368DR,5466,7629,14984,0.165,551
2021-05-11T12:45:44,42.805,6.029,CST-1368DR,5466,7629,14984,0.165,551
2021-05-11T12:48:46,42.805,6.029,CST-1368DR,5466,7629,14983,0.166,551
2021-05-11T12:51:48,42.805,6.029,CST-1368DR,5466,7629,14982,0.166,551
2021-05-11T12:54:49,42.805,6.029,CST-1368DR,5466,7629,14983,0.166,551
2021-05-11T12:57:51,42.805,6.029,CST-1368DR,5466,7628,14982,0.166,551
2021-05-11T13:00:52,42.805,6.029,CST-1368DR,5466,7629,14982,0.166,551
2021-05-11T13:03:54,42.805,6.029,CST-1368DR,5466,7628,14981,0.166,551
2021-05-11T13:06:56,42.805,6.029,CST-1368DR,5466,7628,14981,0.166,551
2021-05-11T13:09:57,42.805,6.029,CST-1368DR,5466,7628,14982,0.166,551
2021-05-11T13:12:59,42.805,6.029,CST-1368DR,5466,7629,14982,0.166,551
2021-05-11T13:16:00,42.805,6.029,CST-1368DR,5466,7628,14981,0.166,551
2021-05-11T13:19:02,42.805,6.029,CST-1368DR,5466,7628,14981,0.166,551
2021-05-11T13:22:03,42.805,6.029,CST-1368DR,5466,7628,14981,0.166,551
2021-05-11T13:25:05,42.805,6.029,CST-1368DR,5466,7628,14982,0.166,551
2021-05-11T13:28:07,42.805,6.029,CST-1368DR,5466,7628,14981,0.166,551
2021-05-11T13:31:08,42.805,6.029,CST-1368DR,5466,7628,14980,0.166,551
2021-05-11T13:34:10,42.805,6.029,CST-1368DR,5466,7628,14981,0.166,551
2021-05-11T13:37:11,42.805,6.029,CST-1368DR,5466,7628,14980,0.166,551
2021-05-11T13:40:13,42.805,6.029,CST-1368DR,5466,7628,14982,0.166,551
2021-05-11T13:43:15,42.805,6.029,CST-1368DR,5466,7628,14981,0.166,551
2021-05-11T13:46:16,42.805,6.029,CST-1368DR,5466,7628,14981,0.166,551
2021-05-11T13:49:18,42.805,6.029,CST-1368DR,5466,7628,14982,0.166,551
2021-05-11T13:52:19,42.805,6.029,CST-1368DR,5466,7628,14982,0.166,551
2021-05-11T13:55:21,42.805,6.029,CST-1368DR,5466,7629,14982,0.166,551
2021-05-11T13:58:22,42.805,6.029,CST-1368DR,5466,7628,14982,0.166,551
2021-05-11T14:01:24,42.805,6.029,CST-1368DR,5466,7628,14982,0.166,551
2021-05-11T14:04:26,42.805,6.029,CST-1368DR,5466,7627,14980,0.166,551
2021-05-11T14:07:27,42.805,6.029,CST-1368DR,5466,7628,14982,0.166,551
2021-05-11T14:10:29,42.805,6.029,CST-1368DR,5466,7628,14982,0.166,551
2021-05-11T14:13:30,42.805,6.029,CST-1368DR,5466,7628,14981,0.166,551
2021-05-11T14:16:32,42.805,6.029,CST-1368DR,5466,7628,14982,0.166,551
2021-05-11T14:19:33,42.805,6.029,CST-1368DR,5466,7626,14978,0.167,551
2021-05-11T14:22:35,42.805,6.029,CST-1368DR,5466,7626,14976,0.167,551
2021-05-11T14:25:37,42.805,6.029,CST-1368DR,5466,7627,14980,0.166,551
2021-05-11T14:28:38,42.805,6.029,CST-1368DR,5466,7629,14982,0.166,551
2021-05-11T14:31:40,42.805,6.029,CST-1368DR,5466,7629,14982,0.166,551
2021-05-11T14:34:41,42.805,6.029,CST-1368DR,5466,7628,14981,0.166,551
2021-05-11T14:37:43,42.805,6.029,CST-1368DR,5466,7628,14982,0.166,551
2021-05-11T14:40:45,42.805,6.029,CST-1368DR,5466,7628,14980,0.166,551
2021-05-11T14:43:46,42.805,6.029,CST-1368DR,5466,7627,14979,0.167,551
2021-05-11T14:46:48,42.805,6.029,CST-1368DR,5466,7629,14983,0.166,551
2021-05-11T14:49:49,42.805,6.029,CST-1368DR,5466,7628,14981,0.166,551
2021-05-11T14:52:51,42.805,6.029,CST-1368DR,5466,7629,14982,0.166,551
2021-05-11T14:55:52,42.805,6.029,CST-1368DR,5466,7628,14981,0.166,551
2021-05-11T14:58:54,42.805,6.029,CST-1368DR,5466,7628,14981,0.166,551
2021-05-11T15:01:56,42.805,6.029,CST-1368DR,5466,7627,14980,0.166,551
2021-05-11T15:04:57,42.805,6.029,CST-1368DR,5466,7628,14980,0.166,551
2021-05-11T15:07:59,42.805,6.029,CST-1368DR,5466,7628,14981,0.166,551
2021-05-11T15:11:00,42.805,6.029,CST-1368DR,5466,7628,14980,0.166,551
2021-05-11T15:14:02,42.805,6.029,CST-1368DR,5466,7628,14982,0.166,551
2021-05-11T15:17:03,42.805,6.029,CST-1368DR,5466,7628,14980,0.166,551
2021-05-11T15:20:05,42.805,6.029,CST-1368DR,5466,7628,14981,0.166,551
2021-05-11T15:23:07,42.805,6.029,CST-1368DR,5466,7628,14981,0.166,551
2021-05-11T15:26:08,42.805,6.029,CST-1368DR,5466,7627,14978,0.167,551
2021-05-11T15:29:10,42.805,6.029,CST-1368DR,5466,7627,14980,0.166,551
2021-05-11T15:32:11,42.805,6.029,CST-1368DR,5466,7628,14980,0.166,551
2021-05-11T15:35:13,42.805,6.029,CST-1368DR,5466,7627,14980,0.166,551
2021-05-11T15:38:15,42.805,6.029,CST-1368DR,5466,7628,14981,0.166,551
2021-05-11T15:41:16,42.805,6.029,CST-1368DR,5466,7628,14980,0.166,551
2021-05-11T15:44:18,42.805,6.029,CST-1368DR,5466,7628,14982,0.166,551
2021-05-11T15:47:19,42.805,6.029,CST-1368DR,5465,7627,14982,0.166,551
2021-05-11T15:50:21,42.805,6.029,CST-1368DR,5466,7626,14978,0.167,551
2021-05-11T15:53:22,42.805,6.029,CST-1368DR,5465,7626,14979,0.167,551
2021-05-11T15:56:24,42.805,6.029,CST-1368DR,5465,7628,14984,0.165,551
2021-05-11T15:59:26,42.805,6.029,CST-1368DR,5466,7627,14979,0.167,551
2021-05-11T16:02:27,42.805,6.029,CST-1368DR,5466,7628,14982,0.166,551
2021-05-11T16:05:29,42.805,6.029,CST-1368DR,5466,7629,14982,0.166,551
2021-05-11T16:08:30,42.805,6.029,CST-1368DR,5466,7628,14982,0.166,551
2021-05-11T16:11:32,42.805,6.029,CST-1368DR,5465,7629,14985,0.165,551
2021-05-11T16:14:33,42.805,6.029,CST-1368DR,5466,7628,14981,0.166,550
2021-05-11T16:17:35,42.805,6.029,CST-1368DR,5465,7628,14983,0.166,551
2021-05-11T16:20:37,42.805,6.029,CST-1368DR,5465,7627,14982,0.166,551
2021-05-11T16:23:38,42.805,6.029,CST-1368DR,5465,7628,14984,0.165,551
2021-05-11T16:26:40,42.805,6.029,CST-1368DR,5465,7627,14981,0.166,551
2021-05-11T16:29:41,42.805,6.029,CST-1368DR,5465,7628,14983,0.166,551
2021-05-11T16:32:43,42.805,6.029,CST-1368DR,5465,7628,14983,0.166,551
2021-05-11T16:35:45,42.805,6.029,CST-1368DR,5465,7628,14983,0.166,551
2021-05-11T16:38:46,42.805,6.029,CST-1368DR,5465,7628,14984,0.165,551
2021-05-11T16:41:48,42.805,6.029,CST-1368DR,5465,7628,14983,0.166,551
2021-05-11T16:44:49,42.805,6.029,CST-1368DR,5465,7628,14983,0.166,551
2021-05-11T16:47:51,42.805,6.029,CST-1368DR,5465,7628,14983,0.166,551
2021-05-11T16:50:52,42.805,6.029,CST-1368DR,5465,7629,14985,0.165,551